Location: Béaulencourt
(50.0796°N, 2.8795°E)
Time: 12:59:48
(UTC+00:00)

Dummy Sat-02 - Pass Details

Date: 27 April 2026
Orbit: 472 x 483 km, 86.3° (Epoch: 12 May)

Event Time Altitude Azimuth Distance (km) Brightness Sun altitude
Rises 20:54:14 0° 224° (SW) 2,523 8.2 -15.6°
Reaches altitude 10° 20:56:55 10° 246° (WSW) 1,648 7.5 -15.9°
Maximum altitude 20:59:14 16° 287° (WNW) 1,312 7.5 -16.2°
Drops below altitude 10° 21:01:34 10° 327° (NNW) 1,654 8.6 -16.4°
Sets 21:04:17 0° 350° (N) 2,537 9.3 -16.7°
